This is the latest recevied weather packets stored in our database for station/object SQ5TM-1. If no packets are shown the sender has not sent any weather packets the latest 10 day(s).
| Time | Temp. | Humidity | Pressure | Rain* | Wind** | Luminosity | Snow |
|---|---|---|---|---|---|---|---|
| 1777667682 | 13.89° C | 52% | 1012 hPa | - | - | 0 W/m² | - |
| 1777666758 | 14.44° C | 50% | 1012 hPa | - | - | 0 W/m² | - |
| 1777665833 | 15° C | 49% | 1012 hPa | - | - | 0 W/m² | - |
| 1777664909 | 15.56° C | 48% | 1012 hPa | - | - | 0 W/m² | - |
| 1777663985 | 15.56° C | 46% | 1012 hPa | - | - | 0 W/m² | - |
| 1777663061 | 16.11° C | 45% | 1012 hPa | - | - | 0 W/m² | - |
| 1777662136 | 16.67° C | 45% | 1012 hPa | - | - | 0 W/m² | - |
| 1777661211 | 17.22° C | 43% | 1012 hPa | - | - | 0 W/m² | - |
| 1777660287 | 17.22° C | 42% | 1012 hPa | - | - | 0 W/m² | - |
| 1777659361 | 17.78° C | 41% | 1012 hPa | - | - | 0 W/m² | - |
| 1777658436 | 18.33° C | 40% | 1012 hPa | - | - | 0 W/m² | - |
| 1777657512 | 18.89° C | 39% | 1012 hPa | - | - | 0 W/m² | - |
| 1777656587 | 18.89° C | 39% | 1012 hPa | - | - | 0 W/m² | - |
| 1777655663 | 19.44° C | 38% | 1012 hPa | - | - | 0 W/m² | - |
| 1777654739 | 19.44° C | 37% | 1012 hPa | - | - | 0 W/m² | - |
| 1777653815 | 20° C | 37% | 1012 hPa | - | - | 0 W/m² | - |
| 1777652890 | 20° C | 36% | 1012 hPa | - | - | 0 W/m² | - |
| 1777651966 | 20.56° C | 35% | 1012 hPa | - | - | 0 W/m² | - |
| 1777651041 | 20.56° C | 36% | 1012 hPa | - | - | 0 W/m² | - |
| 1777650117 | 21.67° C | 36% | 1012 hPa | - | - | 0 W/m² | - |
| 1777649193 | 25° C | 32% | 1012 hPa | - | - | 0 W/m² | - |
| 1777648268 | 27.78° C | 29% | 1012 hPa | - | - | 0 W/m² | - |
| 1777647344 | 30.56° C | 28% | 1012 hPa | - | - | 0 W/m² | - |
| 1777646420 | 30.56° C | 28% | 1012 hPa | - | - | 0 W/m² | - |
| 1777645496 | 32.22° C | 27% | 1012 hPa | - | - | 0 W/m² | - |
* Rain since midnight (hover to see other rain measurements)
** Current wind speed in m/s (hover to see current wind gust speed)